Wind_Speed
27 27 28 28 27 26 24 23 22 23 25 27 29 32 34 36 35 32 27 22 20 18 17 16 15 15 16 15 15 15 16 17 18 18 18 18 18 20 21 22 23 24 25 27 29 30 30 29 28 28 28 28 29 29 29 29 27 26 26 28 29 32 35 37 41 44 43 41 40 37 36 37 38 36 35 36 35 34 36 38 39 38 37 39 43
29 29 30 30 30 29 27 24 23 23 25 27 28 31 35 36 35 32 28 24 21 19 17 16 17 17 17 17 17 17 18 19 19 19 19 18 19 20 22 22 23 24 25 27 30 31 31 30 29 28 28 28 29 29 29 29 28 27 27 29 31 34 37 39 42 46 47 44 40 36 35 36 37 36 35 37 37 36 37 37 39 41 39 39 41
30 31 31 32 32 31 29 26 23 25 26 27 29 31 35 37 36 34 30 26 22 20 19 18 18 18 18 18 18 18 19 20 20 21 20 20 20 21 23 24 25 26 26 26 27 29 30 30 29 28 27 28 29 30 29 29 29 29 28 29 32 34 36 39 42 46 49 48 44 37 33 33 34 35 36 37 37 37 38 37 39 42 41 39 40
32 31 32 33 34 33 30 27 25 26 27 28 29 31 35 37 36 34 31 27 23 21 20 19 19 19 19 20 19 19 20 20 21 22 22 22 22 23 24 25 26 27 26 26 27 28 30 30 29 29 28 28 30 30 29 28 28 29 30 30 31 33 36 38 41 45 48 50 47 40 33 31 32 32 34 36 37 37 37 37 38 41 42 40 39
33 32 33 34 35 34 31 28 26 27 28 28 30 32 35 36 35 33 29 26 24 22 21 21 21 22 22 23 22 22 22 22 22 23 24 24 23 24 25 26 26 27 27 27 28 29 31 31 31 31 29 28 29 30 28 27 28 29 30 31 32 33 35 38 40 43 46 48 48 43 35 31 30 30 32 35 37 37 37 37 37 40 42 42 41
34 34 35 36 37 35 31 27 26 28 28 28 30 33 35 35 32 29 26 23 21 20 20 21 21 22 22 23 23 24 24 24 23 23 24 23 23 24 25 25 26 26 26 27 28 29 31 32 32 32 31 29 29 29 29 28 28 29 30 31 32 33 34 38 41 42 43 44 44 43 38 32 29 28 29 32 36 38 37 37 37 38 40 43 43
34 36 37 38 37 34 30 27 28 30 28 28 30 33 34 31 27 25 23 21 20 20 20 21 21 22 22 23 24 25 26 25 23 23 24 24 24 24 25 25 25 25 25 26 27 28 29 30 31 31 31 30 29 29 30 30 30 30 30 31 32 33 35 37 40 42 42 42 41 40 39 34 29 27 26 29 35 38 37 36 37 37 38 40 42
34 37 39 38 35 33 31 30 31 30 27 28 31 33 32 28 25 23 21 20 20 20 20 20 21 22 23 24 25 25 24 24 24 24 25 25 25 26 25 25 25 25 25 25 26 27 27 28 28 29 30 30 29 29 30 31 32 31 31 32 33 34 35 37 40 43 43 43 42 40 38 35 31 27 25 27 32 36 36 36 37 36 36 38 41
35 38 39 36 35 33 30 30 31 28 26 28 31 31 29 26 23 21 20 19 18 18 18 19 20 21 23 24 24 24 24 24 25 25 26 26 26 26 26 26 26 26 26 26 26 26 26 27 27 28 29 30 30 30 30 31 33 33 32 32 33 34 35 37 40 43 44 45 44 40 36 33 31 28 26 27 30 33 34 35 36 36 35 38 40
35 38 38 36 34 31 28 31 30 26 26 29 30 28 26 23 21 19 18 18 18 18 19 20 21 22 23 24 25 25 24 24 25 25 25 26 27 27 27 27 27 28 28 27 27 26 26 26 26 26 28 29 30 29 29 30 32 32 32 31 32 34 36 37 39 42 44 45 43 38 35 32 30 29 28 28 29 32 33 34 36 35 35 37 40
35 38 38 35 31 28 29 30 27 24 26 29 28 25 22 20 18 17 18 19 20 21 22 22 23 24 25 25 26 26 25 24 24 23 24 26 27 28 28 28 28 29 29 28 27 27 26 25 25 26 26 28 29 28 28 29 29 30 29 29 31 33 35 37 39 41 43 44 41 37 35 34 31 29 30 29 29 32 34 34 36 35 35 36 39
37 39 38 34 31 29 27 23 22 23 26 27 25 22 20 19 19 19 20 22 23 24 25 25 26 26 27 27 26 26 25 24 23 23 23 25 27 28 29 29 29 29 29 29 28 27 26 26 25 26 26 28 29 29 28 28 27 27 27 28 29 32 33 36 39 42 44 45 42 37 35 35 33 31 31 31 31 33 35 37 37 36 36 37 39
36 37 35 32 31 28 22 18 20 24 25 24 21 19 19 19 21 23 24 26 28 29 29 30 29 29 29 28 27 27 26 24 23 23 24 25 27 28 29 29 29 29 28 28 28 28 27 27 26 26 26 28 29 29 29 28 27 27 27 28 28 30 31 34 38 41 45 47 44 38 34 34 35 34 31 32 34 35 37 39 39 37 36 37 39
33 34 33 31 30 24 16 16 21 23 23 22 20 19 20 21 23 25 27 28 30 31 32 33 32 31 30 29 28 28 27 25 23 23 24 26 28 29 29 29 28 28 27 26 27 27 28 28 27 26 26 27 28 29 29 28 28 28 28 28 28 29 32 34 37 40 42 44 42 37 34 35 36 37 36 35 36 37 38 39 40 39 37 37 37
30 31 32 30 25 18 14 18 23 23 22 22 21 22 23 23 25 26 28 29 31 32 33 33 33 32 31 30 30 30 29 26 24 23 24 26 28 28 28 28 28 27 26 25 25 27 27 27 26 26 26 27 28 28 29 28 29 28 28 28 28 30 32 34 36 37 39 40 37 34 35 38 36 37 40 39 37 37 38 39 40 41 40 38 38
25 26 26 23 18 15 16 21 23 23 23 22 23 23 23 24 25 26 28 30 31 32 33 33 33 31 30 30 30 30 28 26 25 24 24 26 28 28 28 28 28 26 25 24 25 25 25 26 26 25 26 27 28 28 28 28 29 29 28 28 28 31 33 34 36 37 38 40 36 32 35 39 35 32 39 41 37 36 38 39 41 43 42 41 40
22 20 19 17 16 15 18 21 22 22 23 23 23 23 23 24 25 26 28 30 31 32 33 34 31 27 26 27 28 29 28 27 26 27 27 27 28 28 29 29 28 26 24 23 24 24 24 25 25 25 25 27 27 27 27 28 28 28 28 28 29 32 34 35 37 37 39 40 35 31 35 40 35 31 37 40 36 35 38 39 40 42 43 43 42
18 17 17 17 15 16 19 21 21 22 22 22 23 23 23 24 25 27 29 30 31 32 33 35 33 28 27 26 26 27 28 27 28 28 28 28 28 28 29 31 29 26 23 22 22 23 23 23 24 24 25 26 27 26 26 27 27 27 28 28 30 32 34 37 38 37 39 39 32 28 33 38 33 31 35 36 32 33 39 40 37 39 43 44 42
16 16 16 15 15 17 20 21 21 22 23 25 25 24 25 26 26 28 29 30 32 32 33 36 36 32 28 26 26 26 25 24 25 25 25 27 27 27 29 31 29 25 22 20 21 21 22 22 23 23 25 26 26 26 26 26 26 27 28 29 31 33 34 37 40 39 40 41 34 27 32 34 27 26 32 31 28 30 36 38 36 38 43 43 41
14 14 13 14 16 18 20 21 21 23 25 27 26 24 23 26 28 30 30 30 33 34 33 35 34 28 25 26 27 26 25 24 25 26 25 25 26 27 29 31 28 24 21 20 20 20 20 22 23 23 24 25 25 25 25 25 25 26 27 29 30 33 34 37 41 42 42 44 39 31 33 35 25 21 26 27 26 29 34 36 36 38 42 42 41
10 11 12 14 16 19 21 22 24 26 28 31 30 27 27 31 33 32 33 33 33 32 32 32 31 27 25 27 28 27 26 27 27 27 26 25 27 29 31 30 26 22 20 20 19 19 19 21 22 23 24 24 24 24 24 25 24 24 26 28 29 32 34 37 41 42 42 44 41 31 32 35 23 14 20 22 24 28 31 34 36 37 39 40 41
9 10 13 15 17 20 23 26 29 30 33 35 35 33 33 35 34 33 34 33 30 29 30 31 30 27 25 28 30 28 27 26 26 25 25 25 28 30 31 28 25 22 19 18 18 19 19 20 21 22 23 23 23 23 23 23 23 23 25 26 28 30 33 36 40 42 42 43 38 30 30 33 23 10 15 17 20 25 29 32 34 35 36 38 38
9 11 14 16 19 22 25 28 31 32 34 36 35 36 36 35 34 34 33 29 26 27 29 29 27 27 28 31 31 28 26 26 25 25 25 26 28 29 28 25 22 21 19 18 18 19 19 19 20 21 22 22 22 22 22 21 22 23 23 25 26 29 31 35 38 40 41 42 37 30 31 34 28 13 11 12 11 17 23 28 31 32 33 34 34
12 13 16 18 21 25 27 29 31 32 34 36 36 37 37 36 34 33 30 27 27 28 27 25 26 28 31 32 30 28 27 26 26 26 26 26 27 26 23 21 20 20 19 18 18 18 18 19 20 20 21 21 21 20 20 20 21 22 23 24 26 28 30 33 37 39 40 42 39 34 33 35 33 21 9 8 4 9 17 23 28 29 29 29 30
14 16 18 21 23 27 28 29 31 33 35 36 37 37 37 35 33 31 29 29 29 26 23 24 27 30 32 32 30 29 28 28 27 26 25 24 23 21 18 19 19 19 19 18 18 18 18 18 19 20 20 19 18 18 18 20 21 22 22 24 25 27 29 32 35 38 39 41 42 38 34 34 35 30 16 8 2 3 10 17 23 26 26 26 27
16 18 20 23 25 28 28 30 32 34 35 36 36 36 34 32 31 31 30 28 26 23 23 26 28 30 31 31 31 30 29 28 27 25 23 21 19 16 16 17 18 18 18 18 17 17 17 17 19 19 19 17 16 16 18 19 20 21 21 22 24 26 28 31 34 36 38 40 43 41 36 32 34 32 18 7 5 4 6 10 17 22 24 25 27
16 18 20 23 25 27 29 30 32 33 34 34 33 33 32 32 32 31 28 26 25 26 27 28 28 29 30 30 30 30 29 27 24 22 19 17 16 15 16 17 18 18 18 18 17 16 16 17 18 18 17 15 16 17 18 19 20 20 20 21 23 24 27 30 32 35 37 38 40 42 38 33 34 33 23 7 4 6 7 8 13 18 22 23 25
17 19 21 24 26 28 29 29 30 31 32 33 32 32 32 32 31 30 29 28 28 28 29 30 30 30 30 30 30 29 27 25 22 19 16 14 14 15 16 17 17 17 17 16 15 15 15 16 18 18 16 16 17 18 18 19 20 20 20 20 21 23 24 26 29 31 34 35 37 40 40 36 36 36 31 22 9 3 9 11 13 16 19 22 23
19 20 23 26 27 27 27 28 30 31 33 33 33 32 32 31 31 30 29 28 28 29 31 30 29 29 30 30 29 28 26 23 20 17 15 14 15 15 15 16 16 17 16 15 15 14 15 16 17 18 17 18 18 18 18 19 19 20 19 19 20 21 22 24 26 28 31 33 35 37 39 39 38 37 36 31 23 12 5 11 17 19 20 22 24
20 22 24 26 27 27 28 29 31 32 33 33 32 32 31 31 31 31 30 28 29 30 31 29 28 28 28 28 27 25 24 22 19 17 15 15 15 15 15 15 16 16 16 16 15 15 15 16 17 18 18 19 19 19 18 18 18 19 19 19 20 21 21 22 24 26 28 31 34 35 36 38 39 39 37 34 29 24 16 7 11 17 20 23 24
22 23 25 26 27 28 29 31 32 32 32 33 32 31 30 30 29 29 29 28 29 30 29 28 28 27 26 25 25 24 23 22 19 17 16 16 15 15 15 15 16 16 16 17 16 15 15 16 16 18 19 19 20 20 20 19 18 18 18 19 19 21 21 21 22 24 26 29 31 33 33 35 36 37 38 36 31 27 23 18 10 8 14 19 22
22 23 25 26 27 28 29 31 32 32 32 32 31 30 30 29 29 28 28 28 28 28 28 28 26 25 25 24 24 23 22 21 19 17 17 17 16 15 15 15 15 16 17 17 16 16 16 17 16 17 19 21 21 21 21 20 19 18 18 18 19 20 21 21 21 22 24 26 29 30 31 32 33 35 36 36 34 30 26 24 20 13 8 9 15
22 25 26 27 28 29 30 31 31 31 30 29 29 29 29 29 29 28 27 27 27 27 27 26 24 24 25 25 25 23 21 19 18 18 17 17 17 17 16 14 14 16 17 17 17 17 18 18 17 17 19 21 22 22 22 21 21 20 19 19 20 20 20 21 21 21 22 24 25 27 28 29 31 32 32 34 35 34 30 27 24 20 15 10 10
25 28 27 27 29 30 31 32 32 30 28 27 27 28 29 29 28 27 26 26 26 26 25 24 22 24 25 26 25 23 19 17 17 17 16 16 17 17 17 15 14 15 16 16 17 17 17 18 18 18 19 21 22 23 22 22 21 21 21 21 20 20 20 21 21 21 21 21 22 23 24 26 28 29 29 30 32 33 33 30 27 24 20 15 11
29 31 28 28 30 31 32 32 31 29 27 26 26 27 28 28 28 28 27 27 26 25 24 22 22 23 25 26 24 21 18 16 15 15 16 16 17 18 19 18 17 17 17 17 17 17 17 17 17 17 19 21 22 23 23 22 22 21 21 21 21 20 21 21 20 19 19 19 19 20 20 22 24 26 26 27 28 30 32 32 30 27 24 21 17
32 32 29 29 31 32 31 30 29 28 27 26 26 26 27 27 27 27 26 25 24 23 22 21 21 22 24 24 21 19 17 16 14 14 16 18 20 21 22 22 21 20 19 18 18 17 17 17 17 18 19 21 21 21 21 22 22 21 20 20 20 20 20 20 20 19 18 17 17 17 18 18 20 21 23 24 24 25 28 29 29 29 27 24 21
33 30 29 31 32 33 32 30 28 28 27 26 25 25 25 26 26 25 24 23 24 23 22 20 19 19 20 20 17 16 16 16 15 14 16 18 20 22 22 23 22 21 20 20 19 18 18 18 18 18 19 20 20 20 19 19 20 21 20 19 19 20 19 19 19 20 19 17 16 16 16 17 17 18 19 20 21 21 22 24 25 26 26 25 23
32 30 30 32 32 32 32 29 28 27 27 25 24 24 24 24 25 25 23 22 23 24 24 21 17 15 15 14 13 12 13 14 15 15 15 16 18 19 19 20 20 20 20 20 19 19 19 19 18 18 18 18 19 18 18 18 18 19 19 19 19 19 19 18 18 19 18 17 16 15 15 15 16 16 16 16 17 18 18 19 20 21 21 22 23
30 30 31 31 31 31 31 28 27 27 26 24 22 23 23 24 24 24 24 23 23 23 22 19 15 13 13 13 13 13 14 15 16 15 14 14 16 17 17 18 18 18 19 19 19 19 19 19 19 18 17 17 18 18 18 18 17 18 18 18 18 18 18 18 17 17 17 16 15 13 13 14 14 14 14 14 14 15 15 15 16 17 18 19 20
30 30 29 29 29 30 29 27 26 26 25 24 24 24 24 24 24 24 24 24 24 22 19 16 15 15 15 15 16 17 18 18 18 17 15 15 16 17 18 18 18 18 19 19 19 19 19 19 18 17 16 16 17 17 18 18 17 17 17 17 17 17 17 17 17 16 16 15 15 13 12 12 13 13 13 12 12 11 12 12 13 13 14 16 17
31 30 28 27 27 28 27 25 25 25 26 26 25 24 24 24 24 25 25 25 24 21 18 17 17 16 15 16 18 20 21 20 19 18 16 16 18 19 19 19 19 19 19 19 19 18 17 17 17 17 16 16 16 16 16 16 16 15 15 15 15 15 15 15 16 16 15 14 14 14 13 12 11 11 11 11 10 9 9 9 10 10 11 12 13
32 32 30 28 28 29 27 24 24 25 27 27 26 24 24 24 24 25 24 23 22 20 18 17 18 17 17 17 19 21 22 21 20 19 18 18 19 21 21 21 21 20 19 18 17 16 15 15 16 16 16 16 14 13 12 13 12 12 12 12 12 13 13 13 13 14 14 14 13 13 13 12 11 10 10 10 9 8 7 7 7 7 8 9 10
32 33 32 31 31 31 28 24 24 25 26 26 25 23 23 23 22 22 21 22 23 21 19 18 19 18 18 18 19 20 21 21 21 20 19 20 21 21 21 21 21 20 18 17 15 14 14 14 14 14 13 12 11 10 9 9 10 10 10 10 11 11 11 11 12 13 13 13 13 13 13 13 12 12 11 9 9 8 7 6 5 5 6 7 7
32 33 33 33 32 30 27 24 24 24 23 23 23 21 20 20 20 21 21 22 24 24 22 20 20 19 18 18 17 17 18 19 20 21 21 21 21 21 21 20 19 17 16 15 14 14 13 12 11 10 10 9 9 8 8 8 8 9 9 10 10 10 11 11 12 12 13 13 13 14 14 14 14 13 12 11 10 8 7 6 5 4 4 5 6
33 33 32 29 28 26 25 24 23 22 22 21 21 20 19 19 21 23 24 24 25 25 24 22 21 20 20 18 16 16 17 18 19 20 21 21 20 19 18 17 15 14 14 14 13 12 11 9 8 8 8 7 7 7 7 7 8 9 9 10 10 11 11 12 11 12 12 13 13 14 14 14 14 13 13 12 11 10 9 7 5 4 4 4 5
32 31 29 26 25 25 24 22 21 22 22 22 22 21 21 22 25 26 26 25 24 24 23 22 21 21 21 20 18 17 16 16 17 19 20 19 19 17 15 13 13 13 12 11 11 9 8 7 6 6 6 7 7 8 8 8 8 8 9 9 9 10 11 11 12 11 12 12 13 13 14 14 14 14 13 12 12 11 10 9 7 5 3 4 4
27 26 26 25 25 25 23 22 21 22 23 24 24 24 24 25 26 26 25 24 22 21 22 23 22 23 23 22 19 16 15 15 16 17 17 16 15 15 13 11 11 11 9 8 7 7 7 7 6 6 7 7 8 8 8 8 8 8 8 8 9 9 10 11 11 12 12 12 12 12 13 13 14 14 14 13 12 12 11 10 10 8 6 3 3
23 23 23 24 24 24 23 21 21 22 23 24 25 25 24 24 23 23 23 23 21 21 22 24 25 26 26 25 22 18 16 16 17 16 13 12 13 12 11 10 9 8 7 6 6 7 8 8 7 7 7 7 8 8 8 8 8 9 9 9 9 10 10 10 11 11 12 12 12 12 12 12 12 13 13 13 13 12 11 10 9 9 8 7 4
21 21 21 21 21 22 22 21 21 21 22 22 23 23 23 22 22 23 23 24 23 23 23 25 27 28 28 28 25 21 17 17 17 15 11 10 11 11 10 9 7 6 6 6 7 7 7 7 7 6 6 7 7 7 8 9 9 9 10 10 10 10 10 10 10 11 11 11 11 11 11 11 12 12 12 12 13 12 12 11 9 9 8 8 7
20 19 19 19 20 20 21 22 21 21 21 21 21 22 22 22 22 23 23 23 24 23 22 22 23 24 24 24 23 20 17 16 16 13 10 8 9 9 8 8 7 6 6 6 6 5 5 6 5 4 4 6 8 9 9 10 10 10 11 11 11 11 10 10 10 10 10 10 11 11 11 11 11 11 11 11 12 12 12 11 10 9 8 7 7
20 19 19 19 19 19 19 20 21 22 23 23 23 23 24 24 24 24 23 23 23 23 21 19 18 19 19 19 19 17 16 14 13 11 9 8 8 8 8 8 8 7 7 6 6 5 4 5 5 4 4 5 8 10 10 11 11 11 11 11 11 11 11 11 11 10 10 10 10 10 10 10 10 10 10 11 11 11 11 11 10 10 9 7 6
Wind_Direction
255 260 264 268 275 281 287 294 302 311 316 320 325 329 334 338 338 336 334 329 326 326 326 325 326 328 328 327 325 323 320 318 315 314 314 312 310 309 308 307 307 307 308 308 308 307 308 308 308 308 307 307 306 305 305 303 301 298 297 300 305 308 310 311 310 309 312 314 308 297 283 271 263 259 257 255 252 248 244 244 246 246 243 237 233
253 258 262 266 271 276 283 290 298 307 313 318 321 325 330 335 335 333 330 328 328 329 329 328 330 334 333 329 326 326 325 323 319 316 316 314 311 308 307 306 306 306 307 307 307 308 308 309 308 307 307 307 306 306 304 302 300 298 298 302 308 314 316 317 315 312 313 315 312 301 287 276 265 257 255 253 251 249 245 242 243 244 243 238 233
250 255 260 264 267 272 278 285 295 304 309 313 317 321 327 332 333 331 328 329 331 331 330 331 332 333 329 324 324 326 326 324 320 317 316 312 308 306 306 308 309 309 307 306 305 306 308 310 309 308 308 308 307 306 303 300 299 298 299 304 310 317 320 321 320 317 316 317 316 306 291 280 269 257 253 251 249 249 246 242 240 241 242 240 235
248 255 260 264 265 269 274 281 291 301 305 308 314 320 326 330 331 329 327 328 331 333 334 334 333 330 325 324 327 326 324 324 322 319 316 311 308 308 310 312 312 311 307 305 304 304 305 308 310 309 309 309 307 306 303 300 298 298 300 304 310 316 320 322 322 321 319 318 317 312 297 284 275 261 252 249 246 247 247 243 239 238 240 240 237
248 254 260 263 263 265 271 279 291 301 303 307 314 320 325 329 330 327 326 328 333 335 335 333 330 329 328 328 328 324 322 324 324 322 318 315 313 313 313 313 311 308 306 306 307 306 306 307 309 309 310 310 308 306 304 301 299 299 301 304 309 313 317 320 321 321 320 317 317 314 303 289 280 267 255 250 245 244 245 244 241 237 237 239 239
249 252 258 261 260 262 269 280 295 304 304 308 315 319 323 327 328 325 324 327 329 329 328 329 329 329 329 327 322 320 321 324 325 321 318 316 314 313 311 308 306 306 307 308 308 308 307 307 308 309 310 310 308 306 305 304 302 302 304 307 310 314 316 318 320 321 319 316 316 315 307 294 284 274 261 252 245 242 242 242 242 240 237 236 238
250 251 254 257 256 259 265 277 295 303 303 307 313 317 322 326 325 322 322 324 327 329 330 330 330 327 325 321 318 319 322 323 321 318 316 315 314 312 309 306 304 306 308 309 308 307 306 308 309 310 310 311 309 308 308 307 307 307 308 311 314 316 316 317 319 321 319 316 316 316 309 298 288 278 266 254 246 242 242 241 241 241 239 237 236
248 249 251 252 254 256 261 275 292 300 300 304 309 315 322 325 324 323 325 329 332 334 332 330 327 324 321 320 319 321 322 320 318 318 318 318 315 312 310 308 307 308 308 307 305 306 308 310 311 310 310 311 310 308 308 308 308 308 310 313 317 317 315 316 319 320 320 319 318 317 310 301 291 279 266 255 247 242 242 244 242 241 241 238 235
248 248 251 255 258 257 263 282 296 297 298 303 309 317 324 325 325 327 330 335 337 335 332 330 329 328 329 327 325 324 324 321 321 322 321 319 315 313 312 311 311 310 309 307 305 307 310 310 311 311 311 311 310 309 308 308 308 309 311 314 315 314 313 315 318 320 322 322 320 317 311 302 292 281 267 254 247 242 240 242 243 242 242 239 235
251 250 251 255 258 259 272 291 296 292 296 304 312 320 323 323 324 326 329 334 336 335 334 334 334 335 336 336 333 331 328 325 325 325 323 321 318 315 313 313 313 312 311 310 309 309 310 310 311 312 312 312 311 309 307 306 306 307 309 312 313 312 312 314 318 321 322 323 321 316 311 303 291 280 269 255 246 243 240 239 241 243 242 239 235
254 252 252 254 259 269 282 290 289 290 298 307 315 320 319 318 321 324 328 331 333 333 334 335 336 337 337 337 337 336 333 328 326 327 326 324 320 316 314 312 313 313 313 313 312 311 312 312 312 312 313 314 313 311 308 307 307 307 307 309 310 311 312 315 319 321 321 321 319 314 311 306 293 278 269 259 248 242 239 238 238 240 241 239 235
252 252 255 260 269 280 284 282 283 292 301 310 317 317 314 314 318 322 328 331 332 333 332 333 333 333 334 335 336 338 337 332 328 326 325 323 320 317 315 313 310 310 312 312 311 311 312 312 310 311 312 313 313 313 312 312 311 309 307 307 308 310 313 316 319 321 320 320 317 311 309 307 297 282 269 261 252 242 238 236 236 238 240 238 235
252 256 260 264 272 278 278 277 285 296 305 314 317 316 315 318 322 327 331 334 335 333 331 332 332 331 331 331 332 336 338 334 328 324 322 320 319 318 317 315 311 308 309 309 308 309 310 310 310 309 310 311 311 311 312 313 311 308 307 307 308 310 314 316 319 320 320 320 316 310 308 308 300 287 273 262 254 245 238 235 236 238 240 238 235
253 260 259 261 268 273 273 280 291 300 309 315 318 320 324 327 330 332 333 334 335 333 332 333 332 329 327 326 327 330 333 332 325 319 316 314 315 316 317 316 312 309 308 306 306 307 309 309 309 308 310 311 311 310 310 310 309 308 308 308 310 313 315 318 320 321 322 321 314 306 309 314 305 291 278 263 253 247 241 236 234 237 240 238 234
257 260 257 260 266 268 272 285 296 304 311 317 322 326 329 331 331 330 328 329 330 330 330 331 330 327 324 322 322 323 324 324 318 311 309 310 312 314 315 314 312 310 308 305 304 306 307 307 306 307 310 311 311 310 310 309 309 309 310 311 313 316 319 321 323 324 328 328 318 305 310 319 311 291 279 268 254 248 245 240 235 236 238 237 233
257 256 256 256 254 259 277 292 301 309 314 318 323 327 327 326 325 325 324 323 325 327 327 327 326 323 318 315 316 316 317 316 312 308 309 312 313 313 313 313 312 310 306 303 303 306 306 305 305 307 309 310 311 311 310 309 309 309 311 314 316 320 321 321 322 324 329 332 323 307 308 319 313 289 277 273 261 249 247 244 237 235 235 235 233
249 247 245 241 242 263 287 299 306 310 314 317 320 322 321 320 320 319 318 318 321 323 323 320 316 312 308 307 310 313 316 316 311 309 309 309 309 310 310 310 310 309 306 302 302 305 305 304 305 308 309 310 310 309 308 309 309 312 315 317 320 323 322 321 321 323 329 333 326 311 312 320 313 287 275 275 267 252 246 243 238 235 235 235 233
233 230 227 231 250 278 295 304 308 309 311 313 314 316 317 317 317 315 314 316 318 318 319 317 315 313 310 312 315 315 316 315 312 310 308 304 302 304 306 307 308 307 304 301 301 303 303 303 305 308 309 308 307 308 309 311 314 316 317 320 323 324 324 324 325 325 330 334 328 316 319 324 313 290 278 274 267 254 244 241 238 237 236 235 233
213 217 225 244 271 292 302 307 309 309 310 310 309 311 313 315 314 311 311 313 312 314 319 322 324 323 315 313 319 319 316 315 313 311 308 304 302 302 302 304 305 304 301 299 300 301 302 302 304 306 306 306 307 309 312 315 317 318 318 321 324 325 326 328 331 332 335 338 332 319 324 329 316 291 281 272 260 250 243 239 236 235 236 235 233
203 222 247 273 292 302 305 307 307 305 306 304 299 298 303 310 311 307 306 307 308 312 319 323 324 321 310 308 317 320 318 316 313 311 309 306 305 304 302 302 303 301 298 297 298 300 300 300 302 304 305 306 307 309 312 316 318 318 319 322 324 326 328 331 335 338 340 341 336 324 325 334 325 288 279 275 259 246 241 237 233 232 234 234 233
213 249 278 292 299 302 303 305 306 306 308 309 307 303 302 307 310 307 303 301 302 307 315 318 317 314 307 308 315 318 318 317 315 312 309 306 304 303 302 303 301 299 298 299 299 300 299 299 302 304 304 304 305 307 311 316 318 318 319 322 324 327 330 333 337 341 342 342 340 332 329 337 332 279 265 273 265 250 239 233 230 229 230 232 232
241 276 291 295 297 300 302 305 308 309 312 314 315 311 303 300 303 305 302 298 298 303 312 314 311 306 304 306 311 315 318 317 315 312 308 305 303 301 300 300 297 296 299 300 301 301 300 301 302 301 301 302 303 307 311 315 316 317 319 322 324 327 331 334 337 342 344 343 344 344 343 345 345 296 254 264 272 261 242 229 225 223 224 229 232
269 286 291 293 295 297 300 304 307 309 310 310 309 308 304 298 298 301 303 300 298 303 310 310 304 300 302 305 310 315 316 314 313 311 310 309 304 298 295 295 293 295 300 300 300 301 300 300 300 299 300 301 302 307 311 313 315 318 319 321 324 327 331 335 337 341 346 348 350 355 356 356 359 345 264 252 278 276 247 224 218 218 218 223 228
280 283 287 290 292 295 299 302 303 304 306 306 305 305 306 303 300 303 307 304 301 305 308 304 298 297 300 305 311 316 316 314 313 313 312 308 301 293 288 288 291 294 298 300 300 300 299 299 300 300 300 302 303 307 311 313 316 319 319 321 326 329 331 336 338 341 348 352 355 2 5 4 9 7 313 257 270 280 249 221 210 212 213 216 221
277 282 288 290 292 295 297 298 300 301 303 303 302 302 304 304 304 306 308 305 303 304 303 299 297 298 300 306 314 317 316 316 314 312 309 302 294 288 283 285 290 294 296 298 300 301 301 301 302 302 303 305 306 308 312 315 316 316 318 322 328 331 332 335 338 343 350 355 357 4 10 9 14 19 4 316 275 237 242 222 206 204 206 207 211
279 285 290 291 293 294 294 295 298 300 301 301 301 302 303 303 303 304 303 302 302 299 297 299 299 298 301 309 316 316 315 315 314 310 305 295 286 284 284 286 290 293 295 299 302 304 305 304 304 306 309 310 311 311 313 315 314 315 319 323 327 331 332 335 339 344 351 355 357 4 13 13 16 26 24 328 266 193 199 211 203 199 201 203 207
281 284 286 288 289 290 292 294 296 297 299 301 303 302 301 301 301 300 301 302 299 296 298 301 302 302 306 314 317 316 315 315 312 308 304 291 279 280 284 285 288 293 297 301 305 306 308 308 309 311 314 315 315 315 315 315 314 315 319 322 326 330 332 335 339 343 349 352 355 2 12 17 19 28 38 28 275 223 193 196 202 204 205 208 211
278 279 282 285 288 291 292 294 296 298 301 303 302 301 299 298 299 299 300 300 298 297 301 304 306 309 313 316 317 316 316 314 310 307 303 292 280 277 279 282 287 293 297 300 302 303 307 310 310 311 315 318 316 315 316 316 315 316 318 321 325 328 330 333 337 340 345 350 354 360 8 16 21 27 38 48 50 194 197 195 202 208 211 214 217
277 281 285 290 294 298 299 300 302 305 307 306 305 304 303 301 300 300 300 300 299 300 303 306 308 312 314 314 315 316 315 313 309 303 297 289 281 278 279 284 290 295 298 297 296 298 303 307 307 308 314 319 316 313 315 314 313 315 318 321 323 324 326 330 334 338 343 347 352 358 4 12 18 24 33 43 52 66 133 188 197 202 208 212 213
284 290 295 299 304 307 308 310 311 312 311 310 307 305 304 303 301 301 301 300 298 299 302 304 306 308 309 311 312 313 312 309 305 299 291 284 281 280 282 286 291 294 296 294 292 295 300 302 304 308 314 317 315 313 312 311 310 312 315 318 319 319 321 326 331 335 340 345 351 356 1 6 13 19 27 35 46 56 66 109 183 201 213 218 216
293 299 304 309 314 317 318 318 317 315 312 310 308 305 303 301 300 299 300 300 298 299 300 300 302 305 307 308 310 311 310 306 302 299 292 283 280 280 281 286 291 292 293 292 292 295 299 300 302 307 313 316 315 313 310 309 309 310 312 314 315 316 318 322 326 332 338 344 348 352 357 3 8 14 22 28 36 48 59 69 92 167 209 221 223
297 304 310 316 320 321 321 320 317 314 310 309 307 304 301 300 297 296 297 298 298 299 298 298 300 303 305 305 306 308 307 303 299 298 293 285 282 280 279 284 290 291 290 291 292 294 296 298 300 304 310 314 314 312 309 308 309 310 310 310 311 313 316 319 323 329 336 341 344 347 353 358 4 10 17 24 29 36 47 57 67 86 129 175 199
302 307 312 318 321 320 320 320 318 313 309 306 303 300 298 298 296 295 295 297 297 297 297 297 300 302 303 303 305 306 304 301 299 299 294 286 280 277 278 282 287 288 289 291 293 294 296 298 300 302 307 310 311 310 308 307 307 308 309 309 310 312 315 318 321 326 331 335 339 343 348 353 358 5 12 20 26 31 36 43 53 64 79 103 149
306 309 312 317 319 318 319 321 320 314 307 301 299 298 297 296 295 294 295 297 296 295 295 296 300 303 303 303 304 304 302 301 302 300 293 284 279 279 281 283 283 282 285 288 291 293 294 295 297 301 305 308 310 309 308 307 306 307 308 308 310 312 313 314 316 320 325 329 333 338 344 348 353 358 6 15 23 28 32 37 43 49 58 69 90
304 307 308 311 313 314 317 319 318 312 304 298 296 295 294 294 293 293 294 295 294 293 293 295 301 303 301 301 301 300 298 299 300 296 289 285 284 285 288 290 289 285 285 289 291 293 294 295 297 301 306 309 309 308 309 309 308 308 308 308 309 309 310 311 313 316 321 326 330 334 340 345 349 352 358 7 17 24 30 35 39 43 47 49 57
301 302 302 305 308 312 315 316 313 307 300 295 294 293 292 293 293 292 292 293 291 290 290 295 299 298 296 296 296 294 293 293 292 287 284 284 286 287 289 292 292 289 289 292 295 296 297 297 299 302 306 307 307 308 310 311 312 313 314 313 312 312 312 314 316 319 322 325 329 333 336 340 345 348 350 357 8 18 25 30 36 41 43 42 40
297 296 297 301 306 311 314 313 308 304 298 294 292 291 291 291 292 292 292 293 292 291 292 295 295 292 290 292 292 290 290 291 289 286 284 283 285 287 289 290 290 289 290 293 297 298 298 297 298 301 304 305 306 307 310 312 313 316 319 320 320 320 320 321 320 320 322 325 327 329 331 333 337 342 346 349 358 9 19 26 30 35 38 42 41
292 291 296 301 307 311 313 309 305 301 297 293 291 288 287 288 290 292 293 293 291 291 294 297 295 286 280 282 285 288 291 293 292 291 289 287 286 286 286 287 288 289 289 291 294 296 297 297 299 301 302 303 304 306 308 311 312 315 318 322 325 325 326 328 327 324 324 325 325 325 327 329 331 335 340 344 349 358 9 19 26 29 30 33 40
286 290 297 302 307 311 311 307 303 301 297 292 289 286 285 287 288 290 290 288 285 287 293 295 289 273 267 272 279 286 293 296 296 296 295 292 288 285 284 284 285 285 286 288 291 294 296 298 300 301 301 302 303 304 307 309 311 314 317 321 324 326 326 329 331 330 328 328 327 325 324 326 328 330 332 336 341 348 355 3 13 22 24 24 29
287 293 298 303 307 309 307 303 300 298 295 291 288 287 287 288 288 286 284 283 284 287 289 283 272 266 270 277 283 289 295 300 302 302 300 294 290 287 286 286 288 288 289 291 292 295 297 297 298 299 299 300 301 304 307 310 312 315 318 320 322 325 326 327 330 332 332 332 331 331 329 327 326 327 328 330 332 336 344 351 357 6 15 20 22
289 293 299 304 306 306 304 301 297 296 294 291 290 290 290 289 288 287 285 284 285 286 282 271 265 269 277 283 286 290 294 297 299 300 298 295 291 290 290 292 293 293 293 294 295 296 295 295 295 297 298 300 303 306 308 311 315 319 321 324 326 328 329 330 331 334 338 338 338 338 338 337 333 330 327 327 327 326 330 340 347 352 358 6 13
290 294 299 304 305 303 301 297 293 292 292 292 291 291 291 290 288 288 286 285 286 285 279 270 267 272 279 282 284 286 289 291 294 295 295 294 293 293 293 294 294 294 295 296 295 293 292 292 293 295 298 302 308 312 314 317 323 329 331 332 335 338 339 340 340 342 346 349 350 349 350 351 350 347 340 333 328 326 324 322 326 335 342 348 355
291 294 298 301 301 299 296 293 290 289 289 290 290 290 291 290 288 287 287 288 290 290 287 281 278 278 277 276 276 280 284 288 290 292 292 292 292 292 293 292 292 293 295 294 291 290 291 293 295 298 302 309 317 324 329 331 337 344 346 345 346 351 352 351 352 353 355 359 2 2 1 2 4 5 1 352 341 331 323 315 307 306 314 325 334
290 294 297 297 296 294 291 289 289 289 289 290 290 289 289 287 285 285 287 288 289 290 290 288 285 282 278 275 276 280 283 285 288 290 291 291 291 290 289 290 291 292 291 290 291 293 296 299 303 308 314 321 328 336 344 347 349 353 353 350 349 353 356 357 357 357 356 358 2 5 6 7 10 12 13 10 5 355 340 324 309 294 289 294 300
290 293 293 291 289 288 287 287 289 289 289 289 290 290 289 287 285 285 286 287 288 290 290 289 288 287 285 284 283 280 279 281 286 290 291 291 290 288 287 288 290 290 289 291 295 298 303 309 316 320 323 328 335 342 348 350 349 349 348 346 345 345 348 351 353 353 352 352 354 358 0 3 6 10 12 14 14 13 7 354 333 305 282 273 276
289 289 287 285 283 283 284 286 287 287 287 288 289 289 289 287 286 285 286 287 289 290 291 292 292 292 289 286 283 280 280 285 289 290 290 291 290 288 286 287 289 290 291 294 299 303 311 319 322 323 327 330 333 338 342 344 343 342 342 341 340 339 339 341 342 345 348 348 348 349 352 354 356 358 3 8 12 14 15 14 7 348 310 271 260
284 281 281 281 280 282 284 285 285 286 286 287 287 288 288 286 285 287 288 289 290 291 291 291 292 291 289 288 287 285 285 288 289 289 288 286 284 284 286 287 287 288 291 296 301 309 317 319 318 323 329 330 331 335 339 340 340 340 338 336 335 333 331 332 334 335 338 341 341 342 344 345 346 347 350 355 1 7 10 13 14 12 2 332 275
278 277 277 277 278 281 284 284 284 286 286 286 286 288 288 286 286 288 289 290 290 290 288 286 285 286 287 288 290 290 289 290 291 290 284 277 277 282 288 290 290 291 295 302 309 312 313 313 318 327 332 331 331 334 335 332 332 333 333 332 333 332 331 331 331 330 330 331 334 335 336 335 336 338 340 342 346 353 359 4 9 12 13 9 354
274 274 275 277 281 285 288 289 289 288 287 288 289 289 289 288 289 289 289 289 289 289 287 285 283 282 283 284 287 290 290 288 288 286 277 270 275 283 288 291 293 295 297 298 302 303 304 308 319 335 337 329 324 324 324 324 326 329 330 331 333 333 333 332 331 330 329 328 327 328 330 330 329 329 330 330 333 338 345 351 357 3 8 11 11
272 270 272 276 281 285 288 291 292 291 289 288 288 287 287 287 287 286 285 285 285 287 287 286 285 284 281 279 280 281 281 279 278 275 268 264 269 275 281 286 289 292 294 294 295 300 304 307 318 337 337 317 311 315 321 324 326 329 331 331 331 332 333 334 333 332 332 330 329 328 327 326 325 325 323 323 324 327 331 335 341 348 356 3 6
271 271 270 272 275 277 280 283 286 287 287 286 286 286 287 287 286 285 285 285 286 288 291 291 290 288 281 272 269 270 270 267 264 263 262 263 264 268 273 279 282 288 295 298 298 303 305 303 312 332 331 304 303 312 320 323 324 325 324 324 325 325 326 328 331 333 333 332 333 332 329 326 324 322 320 319 319 320 320 323 327 332 339 349 354
Height
3186 3187 3187 3187 3187 3187 3187 3186 3185 3184 3183 3182 3181 3179 3176 3175 3173 3171 3170 3169 3168 3166 3165 3164 3163 3162 3161 3160 3159 3158 3157 3156 3155 3154 3153 3152 3152 3150 3149 3148 3146 3145 3143 3142 3140 3139 3138 3137 3136 3135 3134 3133 3132 3131 3129 3128 3126 3125 3123 3121 3120 3117 3114 3112 3108 3105 3106 3105 3101 3098 3098 3097 3098 3100 3101 3103 3105 3106 3106 3108 3109 3110 3111 3113 3116
3183 3184 3184 3184 3184 3184 3184 3183 3182 3182 3181 3180 3179 3177 3175 3172 3171 3169 3168 3167 3166 3165 3164 3163 3161 3160 3159 3157 3157 3156 3155 3154 3153 3152 3151 3150 3149 3147 3146 3145 3143 3142 3141 3139 3137 3136 3135 3134 3133 3132 3131 3130 3128 3127 3126 3124 3122 3121 3120 3118 3116 3113 3110 3107 3104 3100 3097 3097 3095 3092 3091 3090 3090 3093 3095 3096 3098 3099 3100 3102 3103 3104 3106 3108 3110
3180 3180 3181 3181 3182 3181 3181 3181 3180 3180 3179 3178 3177 3175 3173 3170 3168 3166 3165 3164 3163 3162 3161 3160 3159 3157 3157 3156 3155 3154 3153 3152 3150 3149 3148 3147 3146 3144 3143 3142 3141 3140 3139 3137 3135 3133 3132 3131 3130 3129 3128 3127 3125 3123 3122 3120 3119 3117 3116 3114 3112 3109 3107 3103 3100 3096 3091 3089 3088 3086 3084 3083 3084 3086 3088 3089 3091 3092 3094 3096 3097 3098 3100 3102 3104
3177 3177 3178 3178 3178 3178 3178 3178 3178 3178 3177 3176 3175 3173 3170 3167 3165 3163 3162 3161 3160 3159 3158 3157 3156 3155 3154 3153 3152 3151 3151 3150 3148 3147 3146 3144 3143 3142 3141 3140 3139 3137 3136 3134 3133 3131 3129 3128 3127 3126 3125 3123 3121 3120 3118 3116 3115 3113 3111 3110 3108 3106 3103 3100 3096 3093 3088 3083 3081 3080 3078 3077 3077 3080 3081 3082 3084 3086 3088 3090 3091 3092 3094 3097 3099
3174 3175 3175 3175 3175 3176 3176 3176 3176 3175 3174 3173 3172 3170 3167 3165 3162 3161 3159 3158 3157 3156 3155 3154 3153 3152 3151 3150 3149 3149 3148 3147 3146 3145 3144 3142 3141 3140 3139 3138 3136 3134 3133 3131 3130 3128 3127 3125 3124 3123 3121 3120 3118 3116 3114 3113 3111 3110 3108 3106 3104 3102 3099 3096 3093 3090 3085 3079 3076 3074 3073 3072 3071 3073 3075 3076 3077 3080 3081 3083 3085 3086 3088 3090 3093
3172 3172 3172 3172 3173 3173 3174 3173 3173 3173 3172 3170 3169 3167 3165 3163 3161 3159 3158 3157 3156 3155 3154 3153 3151 3150 3148 3147 3147 3146 3145 3144 3143 3142 3141 3140 3139 3138 3136 3135 3133 3132 3130 3129 3128 3126 3124 3122 3121 3119 3118 3117 3115 3112 3111 3109 3107 3106 3104 3102 3100 3098 3095 3092 3089 3086 3082 3077 3072 3069 3068 3067 3066 3067 3069 3070 3071 3073 3075 3077 3079 3080 3082 3084 3087
3169 3169 3169 3170 3171 3171 3171 3171 3171 3171 3170 3168 3167 3166 3164 3162 3160 3158 3157 3156 3155 3154 3152 3151 3150 3148 3147 3146 3145 3143 3142 3141 3140 3139 3138 3137 3136 3135 3134 3132 3131 3129 3128 3127 3125 3123 3121 3120 3118 3116 3114 3113 3111 3109 3107 3105 3104 3102 3101 3098 3096 3093 3091 3088 3085 3081 3078 3074 3070 3066 3063 3062 3061 3061 3063 3064 3064 3066 3069 3071 3073 3074 3076 3079 3081
3165 3165 3165 3167 3169 3170 3169 3169 3169 3169 3167 3166 3165 3164 3161 3159 3158 3156 3155 3154 3153 3152 3151 3150 3149 3148 3147 3145 3143 3142 3141 3139 3138 3137 3135 3134 3133 3132 3131 3130 3128 3127 3125 3124 3122 3120 3119 3117 3115 3113 3111 3109 3107 3106 3103 3101 3099 3098 3097 3094 3092 3089 3086 3084 3080 3077 3073 3069 3066 3062 3059 3057 3057 3056 3057 3058 3058 3060 3063 3064 3066 3069 3071 3072 3075
3160 3161 3163 3165 3166 3167 3167 3166 3166 3166 3165 3164 3163 3160 3158 3156 3155 3154 3154 3153 3152 3151 3150 3149 3148 3146 3145 3143 3141 3140 3138 3136 3135 3134 3132 3131 3130 3129 3127 3127 3125 3124 3122 3121 3119 3118 3116 3114 3112 3110 3108 3105 3104 3102 3100 3098 3095 3094 3093 3091 3088 3085 3083 3080 3076 3073 3069 3065 3062 3058 3054 3052 3052 3052 3051 3052 3053 3054 3057 3058 3059 3062 3064 3066 3068
3157 3158 3160 3162 3163 3164 3164 3164 3163 3163 3162 3161 3159 3157 3155 3154 3154 3153 3153 3152 3151 3150 3149 3147 3146 3144 3142 3140 3138 3137 3135 3133 3132 3131 3129 3128 3126 3125 3124 3123 3122 3120 3119 3117 3116 3114 3113 3111 3109 3107 3105 3102 3100 3098 3097 3094 3092 3090 3089 3087 3085 3082 3079 3076 3073 3069 3065 3061 3057 3054 3050 3047 3048 3047 3046 3046 3048 3049 3050 3052 3053 3055 3058 3058 3061
3153 3154 3156 3158 3160 3161 3161 3160 3160 3160 3159 3158 3156 3154 3153 3153 3152 3152 3151 3150 3149 3148 3146 3145 3143 3142 3140 3138 3136 3134 3133 3131 3129 3127 3126 3124 3123 3122 3121 3119 3118 3117 3115 3113 3112 3110 3109 3107 3106 3104 3101 3099 3097 3095 3093 3091 3089 3087 3086 3084 3082 3079 3075 3071 3068 3065 3061 3057 3054 3050 3046 3043 3042 3042 3041 3041 3042 3043 3044 3046 3047 3049 3051 3051 3054
3150 3150 3152 3155 3157 3158 3157 3157 3157 3157 3156 3155 3153 3152 3151 3151 3150 3150 3149 3148 3147 3145 3144 3142 3141 3139 3137 3135 3133 3132 3130 3129 3127 3125 3123 3122 3120 3119 3117 3116 3115 3114 3112 3110 3108 3106 3105 3104 3102 3100 3098 3096 3094 3092 3091 3089 3087 3085 3083 3081 3079 3076 3073 3068 3064 3061 3057 3052 3049 3047 3043 3039 3037 3037 3037 3036 3036 3038 3039 3040 3041 3043 3045 3046 3048
3145 3146 3149 3153 3154 3154 3154 3155 3155 3155 3154 3153 3151 3150 3149 3149 3148 3147 3146 3144 3143 3142 3140 3139 3137 3135 3133 3132 3131 3129 3127 3126 3124 3122 3121 3119 3117 3115 3114 3113 3111 3110 3109 3107 3105 3103 3101 3100 3099 3097 3095 3093 3091 3089 3087 3085 3084 3082 3080 3078 3076 3074 3071 3067 3063 3058 3053 3048 3043 3041 3040 3036 3031 3030 3032 3031 3030 3031 3032 3034 3036 3038 3039 3040 3043
3142 3144 3146 3149 3151 3151 3153 3153 3153 3153 3152 3150 3149 3148 3147 3146 3145 3144 3142 3141 3140 3138 3137 3135 3134 3132 3130 3129 3128 3126 3125 3123 3121 3120 3118 3116 3114 3112 3111 3109 3108 3107 3105 3104 3102 3100 3098 3097 3095 3094 3092 3090 3088 3086 3084 3082 3080 3078 3076 3074 3072 3070 3067 3064 3061 3056 3051 3045 3040 3036 3035 3032 3027 3024 3024 3025 3024 3024 3026 3029 3031 3032 3034 3036 3039
3141 3142 3143 3146 3149 3149 3150 3151 3151 3150 3149 3147 3146 3145 3144 3143 3142 3140 3139 3138 3137 3135 3133 3132 3130 3129 3127 3125 3124 3123 3122 3121 3119 3117 3115 3113 3111 3109 3108 3106 3105 3103 3102 3100 3099 3097 3095 3093 3092 3091 3089 3087 3085 3083 3081 3079 3076 3075 3073 3071 3069 3066 3063 3061 3057 3053 3048 3043 3038 3033 3030 3027 3023 3019 3016 3017 3018 3019 3020 3023 3025 3027 3028 3031 3033
3139 3140 3142 3145 3146 3147 3148 3148 3148 3147 3145 3144 3143 3142 3141 3140 3138 3137 3136 3135 3134 3132 3131 3129 3127 3126 3124 3123 3121 3119 3118 3117 3114 3113 3112 3110 3108 3106 3105 3103 3102 3100 3099 3097 3096 3094 3092 3090 3089 3088 3086 3084 3082 3080 3077 3075 3073 3071 3069 3067 3065 3062 3060 3057 3053 3049 3045 3040 3034 3030 3026 3021 3017 3012 3009 3009 3011 3014 3015 3016 3018 3021 3022 3024 3026
3136 3138 3141 3143 3143 3145 3145 3145 3144 3143 3142 3142 3141 3140 3139 3137 3136 3135 3133 3133 3132 3130 3128 3125 3123 3122 3121 3120 3118 3116 3115 3113 3112 3110 3109 3107 3104 3102 3101 3099 3098 3097 3096 3094 3093 3091 3089 3087 3086 3085 3083 3081 3079 3077 3075 3073 3070 3068 3065 3063 3061 3058 3056 3053 3049 3045 3041 3035 3030 3025 3021 3015 3009 3005 3003 3002 3004 3007 3008 3008 3011 3015 3016 3018 3020
3134 3137 3140 3141 3141 3142 3142 3141 3141 3140 3139 3139 3138 3138 3136 3135 3134 3132 3131 3130 3128 3127 3125 3122 3119 3118 3118 3117 3116 3114 3112 3110 3109 3107 3106 3103 3101 3100 3098 3096 3094 3093 3092 3091 3090 3088 3086 3085 3083 3082 3080 3079 3076 3074 3072 3069 3067 3064 3062 3059 3057 3055 3051 3048 3044 3040 3035 3029 3024 3020 3015 3009 3002 2998 2996 2995 2997 3000 2999 3000 3006 3010 3011 3012 3016
3133 3136 3138 3139 3139 3139 3138 3138 3138 3137 3137 3136 3135 3135 3134 3133 3131 3129 3127 3126 3124 3123 3122 3120 3117 3116 3115 3114 3112 3110 3108 3107 3105 3103 3102 3100 3098 3096 3094 3092 3091 3090 3089 3088 3087 3085 3083 3082 3080 3079 3077 3076 3073 3071 3068 3066 3064 3061 3059 3056 3054 3051 3048 3043 3039 3034 3028 3022 3016 3012 3008 3002 2996 2992 2989 2988 2990 2992 2992 2995 3000 3003 3004 3007 3012
3132 3135 3136 3135 3135 3135 3135 3135 3134 3134 3133 3132 3132 3131 3130 3129 3128 3125 3123 3121 3120 3119 3119 3117 3115 3113 3112 3111 3110 3107 3105 3103 3101 3099 3098 3096 3094 3093 3091 3088 3087 3086 3085 3084 3084 3083 3081 3079 3078 3076 3075 3073 3070 3068 3066 3064 3061 3059 3056 3053 3050 3047 3044 3040 3036 3030 3024 3018 3012 3007 3003 2998 2991 2987 2984 2983 2983 2985 2985 2989 2993 2996 2998 3003 3007
3130 3131 3131 3131 3131 3131 3131 3130 3130 3129 3128 3127 3128 3128 3126 3125 3123 3121 3119 3118 3118 3117 3116 3114 3111 3109 3108 3107 3106 3104 3102 3099 3097 3096 3094 3092 3090 3089 3086 3084 3083 3083 3082 3081 3080 3079 3078 3077 3075 3074 3072 3070 3068 3065 3063 3061 3059 3056 3053 3051 3048 3045 3041 3038 3033 3028 3023 3017 3010 3005 3000 2994 2987 2982 2980 2979 2978 2978 2980 2983 2986 2989 2993 2998 3002
3126 3127 3128 3128 3128 3128 3127 3126 3125 3125 3124 3124 3124 3123 3122 3120 3118 3117 3116 3116 3115 3114 3112 3110 3108 3106 3105 3104 3103 3101 3098 3096 3094 3092 3090 3089 3087 3085 3082 3081 3080 3079 3079 3079 3078 3076 3075 3074 3072 3071 3069 3067 3065 3063 3061 3059 3056 3054 3051 3049 3046 3043 3040 3036 3032 3027 3022 3016 3009 3003 2997 2990 2983 2978 2977 2976 2974 2974 2975 2977 2980 2984 2989 2994 2999
3123 3124 3124 3125 3125 3124 3123 3122 3121 3121 3121 3120 3119 3118 3117 3115 3113 3111 3110 3111 3111 3110 3108 3106 3104 3103 3102 3101 3099 3097 3095 3093 3091 3088 3087 3085 3083 3081 3079 3078 3077 3076 3076 3076 3075 3074 3073 3071 3070 3068 3066 3064 3062 3060 3059 3057 3054 3052 3050 3047 3045 3042 3038 3035 3030 3026 3021 3015 3008 3001 2995 2988 2981 2976 2974 2973 2972 2971 2971 2973 2976 2980 2985 2990 2995
3120 3121 3121 3121 3121 3120 3120 3119 3119 3118 3117 3116 3115 3114 3113 3111 3108 3105 3105 3106 3106 3105 3104 3102 3101 3100 3099 3097 3095 3093 3091 3089 3087 3084 3083 3081 3079 3076 3075 3075 3074 3074 3074 3073 3072 3071 3070 3068 3067 3065 3063 3062 3060 3058 3056 3054 3052 3050 3048 3046 3043 3040 3037 3033 3029 3025 3020 3014 3008 3001 2994 2987 2981 2975 2972 2971 2970 2969 2969 2971 2974 2978 2983 2987 2992
3119 3119 3120 3119 3118 3117 3117 3117 3116 3115 3114 3113 3112 3111 3110 3108 3105 3103 3103 3103 3101 3100 3100 3099 3097 3096 3095 3093 3091 3089 3086 3085 3083 3081 3079 3077 3075 3074 3073 3073 3072 3071 3071 3071 3070 3069 3067 3065 3063 3062 3060 3059 3058 3056 3054 3051 3050 3048 3046 3044 3041 3038 3035 3032 3029 3024 3019 3014 3008 3001 2994 2988 2982 2975 2972 2970 2969 2968 2968 2970 2973 2977 2981 2985 2989
3118 3118 3118 3117 3116 3116 3115 3114 3113 3112 3111 3110 3109 3107 3106 3104 3102 3101 3100 3099 3097 3097 3096 3095 3093 3092 3090 3089 3087 3084 3082 3081 3079 3077 3075 3073 3072 3072 3071 3071 3070 3069 3069 3068 3067 3066 3064 3062 3060 3059 3058 3057 3055 3054 3052 3050 3048 3046 3044 3042 3039 3037 3034 3031 3028 3023 3018 3013 3008 3002 2996 2990 2983 2976 2971 2969 2968 2968 2969 2971 2974 2977 2980 2983 2986
3116 3116 3116 3116 3115 3114 3113 3112 3111 3109 3108 3106 3105 3103 3101 3100 3099 3097 3096 3095 3093 3092 3091 3090 3089 3087 3086 3084 3083 3080 3079 3077 3075 3074 3072 3071 3070 3070 3069 3069 3068 3067 3066 3065 3064 3063 3061 3060 3058 3057 3056 3055 3053 3051 3050 3048 3046 3045 3042 3040 3038 3036 3033 3030 3026 3022 3018 3014 3010 3004 2998 2992 2986 2977 2971 2969 2968 2968 2970 2972 2974 2977 2979 2982 2984
3114 3113 3113 3112 3111 3110 3110 3108 3106 3105 3103 3101 3100 3099 3097 3096 3094 3093 3092 3090 3089 3088 3087 3085 3083 3082 3080 3079 3078 3076 3075 3073 3072 3070 3069 3068 3068 3067 3067 3067 3066 3065 3064 3063 3062 3061 3059 3058 3056 3055 3054 3053 3051 3049 3048 3046 3044 3043 3041 3039 3037 3035 3032 3030 3027 3023 3019 3015 3011 3006 3000 2994 2988 2980 2974 2971 2969 2969 2970 2972 2974 2976 2978 2980 2982
3110 3110 3109 3108 3107 3106 3105 3103 3101 3100 3098 3096 3094 3093 3092 3090 3089 3088 3087 3086 3085 3084 3082 3080 3079 3077 3076 3075 3073 3072 3071 3070 3068 3067 3066 3066 3065 3065 3065 3064 3063 3062 3061 3060 3060 3059 3058 3057 3055 3053 3052 3051 3049 3048 3046 3045 3043 3041 3039 3037 3035 3033 3032 3030 3027 3024 3020 3016 3011 3007 3001 2996 2991 2985 2979 2974 2971 2970 2970 2970 2971 2973 2975 2976 2978
3105 3105 3104 3103 3102 3101 3099 3097 3095 3093 3092 3091 3089 3087 3086 3085 3085 3084 3083 3082 3081 3080 3078 3077 3076 3075 3073 3071 3070 3068 3067 3066 3065 3065 3064 3063 3063 3063 3062 3061 3060 3059 3058 3058 3057 3056 3056 3054 3053 3051 3050 3049 3048 3046 3045 3043 3041 3039 3037 3035 3034 3032 3030 3028 3026 3023 3020 3016 3012 3008 3003 2998 2994 2988 2983 2978 2974 2971 2971 2970 2969 2970 2972 2973 2974
3100 3099 3099 3098 3096 3094 3092 3090 3089 3087 3086 3085 3084 3083 3082 3082 3081 3080 3080 3079 3078 3076 3075 3074 3073 3072 3070 3068 3067 3065 3064 3063 3062 3062 3061 3061 3060 3060 3060 3059 3058 3057 3056 3055 3054 3054 3053 3052 3051 3049 3048 3047 3046 3044 3043 3041 3039 3037 3035 3034 3032 3030 3028 3027 3025 3023 3020 3016 3013 3009 3005 3001 2996 2991 2987 2982 2978 2974 2972 2971 2970 2970 2970 2971 2973
3096 3095 3095 3093 3092 3090 3088 3087 3085 3083 3082 3081 3080 3079 3079 3078 3077 3077 3076 3075 3074 3073 3072 3071 3070 3068 3067 3065 3064 3063 3062 3060 3060 3059 3058 3058 3058 3057 3057 3056 3055 3054 3053 3053 3052 3051 3051 3050 3048 3047 3046 3044 3043 3042 3040 3039 3037 3035 3034 3032 3030 3028 3027 3025 3023 3021 3019 3016 3013 3010 3007 3003 2999 2995 2990 2986 2982 2978 2975 2973 2972 2971 2971 2971 2971
3092 3092 3091 3089 3088 3087 3085 3084 3083 3081 3080 3079 3077 3076 3075 3074 3073 3072 3072 3071 3070 3069 3068 3068 3066 3065 3063 3061 3060 3060 3059 3058 3057 3056 3055 3055 3055 3054 3054 3054 3053 3052 3051 3050 3049 3049 3048 3047 3046 3045 3043 3042 3041 3040 3038 3036 3035 3033 3032 3030 3028 3027 3025 3024 3022 3020 3018 3016 3013 3010 3008 3005 3001 2998 2994 2990 2986 2983 2980 2977 2974 2972 2972 2971 2969
3088 3087 3086 3085 3084 3083 3082 3081 3079 3078 3077 3075 3074 3073 3072 3070 3069 3069 3068 3067 3066 3066 3065 3064 3063 3061 3059 3057 3056 3056 3056 3055 3055 3054 3053 3052 3052 3052 3052 3052 3051 3050 3049 3048 3047 3046 3045 3044 3043 3042 3041 3040 3038 3037 3035 3034 3032 3031 3029 3028 3026 3025 3023 3022 3021 3019 3017 3016 3013 3011 3009 3006 3003 3000 2998 2994 2991 2987 2984 2981 2977 2974 2972 2971 2971
3084 3083 3082 3081 3081 3080 3079 3077 3076 3074 3072 3071 3070 3069 3068 3066 3066 3065 3065 3064 3063 3062 3062 3061 3060 3058 3056 3054 3053 3053 3053 3053 3052 3052 3051 3050 3050 3050 3049 3049 3049 3048 3047 3046 3045 3044 3043 3042 3040 3039 3038 3037 3036 3034 3032 3031 3029 3028 3027 3026 3024 3023 3022 3020 3019 3018 3017 3015 3013 3011 3009 3007 3004 3002 2999 2997 2994 2991 2988 2984 2980 2977 2975 2974 2973
3081 3080 3079 3078 3078 3077 3075 3074 3072 3070 3069 3067 3066 3065 3063 3062 3062 3062 3061 3061 3060 3059 3059 3059 3058 3055 3053 3051 3051 3051 3050 3050 3050 3050 3050 3049 3048 3047 3047 3046 3045 3044 3043 3043 3042 3041 3040 3039 3038 3037 3036 3035 3033 3032 3030 3029 3027 3026 3025 3023 3022 3021 3020 3018 3017 3016 3015 3014 3012 3010 3009 3007 3005 3003 3001 2999 2997 2994 2991 2988 2985 2982 2979 2978 2977
3077 3076 3075 3075 3074 3073 3071 3070 3068 3066 3065 3064 3063 3061 3060 3059 3058 3058 3058 3057 3056 3055 3055 3055 3055 3053 3051 3050 3049 3048 3048 3048 3048 3048 3048 3047 3046 3045 3044 3043 3042 3041 3040 3039 3038 3038 3037 3036 3035 3034 3033 3032 3031 3030 3028 3027 3025 3023 3022 3021 3020 3018 3017 3016 3015 3014 3013 3012 3011 3009 3008 3007 3005 3004 3002 3000 2998 2997 2994 2992 2989 2986 2984 2983 2981
3073 3072 3072 3071 3069 3068 3067 3065 3064 3062 3061 3060 3059 3058 3056 3056 3055 3055 3055 3054 3053 3051 3051 3051 3051 3050 3049 3047 3047 3046 3046 3045 3045 3045 3045 3044 3043 3042 3041 3040 3039 3038 3037 3037 3036 3035 3034 3033 3032 3031 3030 3029 3028 3027 3026 3025 3023 3022 3020 3019 3018 3016 3015 3014 3013 3012 3011 3010 3009 3008 3007 3006 3004 3003 3002 3001 2999 2998 2996 2994 2992 2990 2988 2986 2984
3068 3068 3067 3066 3065 3064 3063 3061 3060 3058 3058 3057 3056 3055 3054 3053 3053 3053 3052 3051 3050 3049 3049 3049 3048 3047 3046 3045 3044 3044 3044 3043 3042 3042 3042 3041 3040 3039 3039 3038 3037 3036 3035 3034 3033 3032 3031 3030 3029 3029 3028 3027 3026 3025 3024 3023 3022 3020 3019 3018 3016 3015 3014 3012 3011 3010 3009 3008 3007 3007 3006 3004 3003 3002 3002 3001 2999 2998 2997 2996 2994 2993 2991 2989 2987
3064 3063 3063 3062 3061 3059 3058 3057 3056 3055 3054 3054 3052 3051 3051 3050 3050 3049 3048 3047 3046 3046 3047 3046 3045 3044 3043 3043 3042 3041 3041 3040 3039 3039 3039 3038 3037 3036 3035 3035 3034 3033 3032 3031 3030 3029 3028 3027 3027 3026 3025 3025 3024 3023 3022 3021 3020 3019 3017 3016 3015 3014 3012 3011 3010 3009 3008 3007 3006 3005 3004 3003 3002 3001 3001 3000 2999 2998 2997 2996 2995 2994 2993 2991 2990
3060 3059 3058 3057 3056 3055 3054 3053 3052 3051 3051 3050 3049 3048 3048 3047 3046 3045 3044 3043 3043 3043 3044 3043 3042 3041 3041 3040 3039 3038 3037 3037 3036 3036 3035 3035 3034 3033 3032 3031 3030 3030 3029 3028 3027 3026 3025 3025 3024 3023 3023 3022 3022 3021 3020 3019 3018 3017 3016 3015 3013 3012 3011 3010 3009 3008 3007 3006 3005 3004 3003 3002 3001 3000 3000 2999 2998 2998 2997 2996 2995 2995 2994 2993 2992
3056 3055 3054 3052 3052 3051 3050 3049 3049 3048 3047 3046 3046 3045 3044 3043 3042 3041 3040 3039 3039 3040 3041 3040 3039 3039 3038 3037 3036 3035 3034 3033 3033 3032 3032 3032 3031 3029 3029 3028 3027 3026 3026 3025 3024 3023 3023 3022 3022 3021 3021 3020 3020 3019 3018 3017 3016 3015 3014 3013 3012 3011 3010 3009 3008 3007 3006 3005 3004 3003 3002 3001 3000 3000 2999 2998 2998 2997 2996 2996 2996 2995 2994 2994 2993
3051 3050 3049 3048 3047 3047 3046 3046 3045 3044 3044 3043 3043 3042 3041 3040 3039 3038 3037 3036 3035 3036 3037 3037 3036 3035 3035 3034 3033 3032 3031 3031 3030 3029 3029 3029 3028 3027 3026 3025 3024 3023 3023 3022 3022 3021 3021 3020 3020 3019 3019 3018 3018 3017 3017 3016 3015 3014 3013 3012 3012 3011 3010 3009 3008 3006 3005 3004 3003 3002 3001 3000 3000 2999 2999 2998 2997 2996 2996 2995 2995 2995 2994 2994 2993
3046 3046 3045 3044 3043 3043 3042 3042 3041 3041 3040 3040 3039 3039 3038 3038 3036 3036 3035 3034 3033 3032 3033 3033 3032 3032 3032 3031 3031 3030 3029 3028 3027 3026 3026 3025 3025 3024 3023 3022 3022 3021 3021 3020 3019 3019 3018 3018 3018 3017 3017 3016 3016 3016 3015 3015 3014 3013 3013 3012 3011 3011 3010 3009 3008 3006 3005 3004 3003 3002 3001 3000 2999 2999 2998 2998 2997 2996 2995 2995 2994 2994 2994 2994 2993
3042 3041 3041 3040 3039 3039 3038 3038 3038 3037 3037 3037 3036 3036 3036 3035 3034 3033 3032 3032 3031 3030 3029 3029 3029 3028 3028 3027 3027 3027 3026 3025 3024 3024 3023 3022 3022 3021 3020 3020 3019 3019 3018 3018 3017 3017 3016 3016 3016 3015 3015 3015 3015 3014 3014 3014 3013 3013 3012 3011 3011 3010 3009 3008 3008 3007 3005 3004 3003 3002 3001 3000 2999 2999 2998 2998 2997 2996 2995 2994 2994 2993 2993 2993 2993
3038 3037 3037 3036 3036 3035 3035 3035 3035 3035 3034 3034 3033 3033 3033 3032 3031 3030 3029 3029 3028 3027 3025 3025 3025 3025 3024 3023 3023 3023 3023 3022 3021 3021 3020 3019 3018 3018 3018 3018 3017 3017 3016 3016 3015 3015 3015 3015 3014 3014 3014 3014 3013 3013 3013 3013 3013 3012 3012 3011 3010 3010 3009 3008 3007 3006 3005 3004 3003 3002 3001 3000 2999 2999 2998 2997 2997 2996 2995 2995 2994 2993 2993 2992 2992
3033 3033 3033 3033 3032 3032 3032 3032 3032 3032 3031 3031 3030 3030 3030 3029 3027 3026 3026 3026 3025 3024 3022 3021 3020 3020 3020 3019 3019 3020 3019 3019 3019 3018 3018 3017 3016 3015 3015 3016 3016 3015 3015 3014 3014 3014 3013 3013 3013 3013 3013 3013 3013 3012 3012 3012 3012 3012 3011 3011 3010 3009 3008 3007 3006 3006 3005 3004 3003 3002 3001 3000 2999 2998 2997 2997 2996 2996 2995 2995 2994 2993 2992 2992 2992
3030 3029 3029 3029 3029 3029 3029 3029 3029 3029 3028 3028 3027 3026 3026 3025 3024 3024 3023 3023 3022 3021 3020 3018 3017 3016 3016 3015 3015 3016 3016 3016 3016 3016 3016 3015 3014 3013 3013 3013 3013 3013 3013 3013 3013 3012 3012 3012 3012 3012 3012 3012 3012 3012 3011 3011 3011 3011 3010 3010 3009 3009 3008 3007 3006 3005 3004 3003 3002 3001 3000 2999 2998 2998 2997 2996 2996 2995 2995 2994 2994 2993 2992 2992 2991
3027 3026 3026 3026 3026 3026 3025 3025 3026 3026 3025 3024 3023 3022 3022 3022 3021 3021 3020 3019 3018 3018 3017 3016 3014 3013 3012 3011 3011 3012 3012 3012 3012 3013 3013 3013 3012 3012 3011 3011 3011 3012 3012 3012 3012 3012 3012 3011 3011 3012 3012 3011 3011 3011 3011 3010 3010 3010 3009 3009 3008 3007 3007 3006 3005 3004 3003 3002 3001 3000 2999 2998 2998 2997 2996 2995 2995 2994 2994 2994 2993 2993 2992 2992 2991
3024 3024 3024 3024 3023 3023 3022 3021 3021 3021 3021 3021 3020 3020 3019 3019 3018 3018 3016 3015 3014 3013 3013 3013 3011 3010 3009 3009 3008 3009 3010 3010 3010 3010 3011 3011 3010 3010 3010 3010 3010 3010 3010 3010 3011 3011 3011 3011 3011 3011 3011 3011 3010 3010 3010 3009 3009 3008 3008 3007 3006 3006 3005 3004 3004 3003 3002 3001 3000 2999 2998 2997 2997 2996 2995 2995 2994 2993 2993 2992 2992 2992 2992 2991 2991
3021 3021 3021 3021 3021 3021 3020 3019 3018 3017 3017 3017 3017 3016 3016 3015 3015 3014 3013 3012 3010 3010 3009 3009 3008 3007 3007 3006 3006 3006 3007 3008 3008 3008 3008 3008 3008 3008 3008 3008 3008 3009 3009 3009 3009 3009 3009 3009 3010 3011 3011 3010 3009 3008 3008 3008 3007 3007 3006 3005 3005 3004 3003 3003 3002 3001 3000 2999 2999 2998 2997 2996 2996 2995 2994 2994 2993 2993 2992 2991 2991 2991 2991 2991 2991